STARLINK-5243 (54167 NORAD) Tracking and Keplerian Element Data

This shows tracking and keplerian element data for the satellite.

Feedback or suggestion? Click here.




ElementValue
Catalog54167
NameSTARLINK-5243
Epoch Orbit130
Epoch Day324.91667824
Epoch Year2022
RAAN26.0671
Inclination53.2194
Eccentricity0.0001225
Argument of Perigee87.8803
Mean Anonmoly53.0668
Mean Motion15.58816704
Decay Rate-0.01169021
L11 54167U 22141L 22324.91667824 -.01169021 00000+0 -16488-1 0 9998
L22 54167 53.2194 26.0671 0001225 87.8803 53.0668 15.58816704 1302



Live tracking and technical data element details for STARLINK-5243 (NORAD 54167). STARLINK-5243 can be tracked NOW for your location showing map with azimuth and elevation plus other details from your city location.







IsCatalogInMostPopularTable: catalog: 54167, numindb: 8
Update: records affected: 1



GetName: 54167 STARLINK-5243

Hit Count: updated at: Sun, 04 Dec 2022 22:44:17 GMT